Погода в Буденновске

Хотите узнать прогноз погоды в Буденновске? Тогда Вам сюда: Погода в Буденновске

Поиск расширенной информации на нашем сайте:

Полезная информация:

Новости сайта



02.01.2020
Опубликован Долгосрочный прогноз погоды по городам России и ближнего зарубежья на январь 2020 года.
Карты: Прогноз на январь и февраль 2020 года, Сравнение прогнозируемой аномалии приземной температуры воздуха на январь 2020 года по разным моделям.




Погода в Буденновске - сегодня

Время (UTC), дата Ветер
(°,м/с) 
Видим.   Явления Облачность Т
(°С)
Тd
(°С)
f(%) Тe
(°С)
Pmin
(гПа)
dP
(гПа)
Po
(мм)
O2
(г/м3)
Тmin Tmax R s Состояние
почвы
12 19.10.20 020 (С) 10 км    9/0 средняя, верхняя 
[Ac trans|Ci fib]
+23 +9.1 41 +23  1014.1  -1  749  277           
15 19.10.20 010 (С) 20000 м    8/3 600 м средняя, верхняя 
[Sc|Ac trans|Ci fib]
+18.6 +9.5 55 +21  1014.4  0.1  749  281    +23.8       
18 19.10.20 350 (С) 20000 м  слаб. ливневой дождь  10/10 600 м кучево-дожд. 
[Cb calv]
+18 +10.8 63 +21  1016.4  750  282           
21 19.10.20 270 (З) 5{11}  4000 м  слаб. ливневой дождь  10/10 600 м кучево-дожд. 
[Cb calv]
+15.3 +13.5 89 +21  1018.3  1.7  752  284           
00 20.10.20 300 (СЗ) 6-10{12}  10 км  {ливн. осадки}  3/3 600 м 
[Sc]
+12.5 +9.7 83 +12  1020.6  2.1  753  289           
03 20.10.20 310 (СЗ) 10 км    10/10 600 м 
[Sc]
+11.1 +8.5 84 +11  1024  3.3  756  291  +11.1      влажная 
06 20.10.20 310 (СЗ) 10 км    9/9 600 м 
[Sc]
+11.8 +7.8 76 +12  1026  757  291  +10.1         
09 20.10.20 330 (СЗ) 10 км    8/8 600 м 
[Cu med, cong]
+15.3 +7.3 59 +17  1025  -0.8  757  287           
12 20.10.20 300 (СЗ) 10 км    8/6 600 м средняя 
[Cu med, cong|Ac trans]
+15.9 +6.8 55 +17  1024.1  -0.8  756  287           
15 20.10.20 180 (Ю) 10 км    9/9 600 м 
[Sc]
+12.6 +6.9 68 +14  1024.5  0.2  756  290    +16.6       
18 20.10.20 320 (СЗ) 10 км    9/9 600 м 
[Sc]
+12.5 +8.4 76 +14  1025.4  0.9  757  290           
21 20.10.20 310 (СЗ) 10 км    9/9 600 м 
[Sc]
+11.1 +7.2 77 +11  1026.3  0.7  757  292           
00 21.10.20 290 (З) 10 км    9/9 600 м 
[Sc]
+9.8 +6.4 79 +11  1027.3  0.9  758  294           
03 21.10.20 310 (СЗ) 10 км    9/9 600 м 
[Sc]
+8.7 +4.3 74 +9  1028.8  1.5  759  296  +8.2         
06 21.10.20 260 (З) 10 км    3/0 верхняя 
[Ci fib]
+11 +3.4 59 +11  1029.9  1.2  760  294  +8         
09 21.10.20 290 (З) 10 км    1/1 600 м 
[Cu hum]
+14.5 +1.4 41 +15  1029.1  -0.6  760  290           
12 21.10.20 260 (З) 3{11}  10 км    3/3 1000 м 
[Sc]
+15.5 -1.6 31 +16  1027.9  -1.1  759  289           
15 21.10.20 340 (С) 20000 м    8/3 600 м верхняя 
[Sc|Ci fib]
+11 +0.6 49 +12  1028.2  0.1  759  294    +15.6       
18 21.10.20 040 (СВ) 10 км    ясно 
+7.9 +1.1 62 +9  1028.2  -0.2  759  297           
21 21.10.20 070 (В) 10 км    10/6 600 м верхняя 
[Sc|Ci fib]
+7.9 +1.1 62 +9  1028.2  -0.4  758  297           
00 22.10.20 340 (С) 10 км    10/10 600 м 
[Sc]
+6.7 +0.2 63 +7  1025.9  -1.9  757  298           
03 22.10.20 тихо ()   10 км    10/10 600 м 
[Sc]
+5.9 +0.3 67 +6  1025.1  -0.8  756  298  +5.2         
06 22.10.20 130 (ЮВ) 10 км    10/10 600 м 
[Sc]
+9.2 -0.2 52 +10  1025.6  0.6  757  295           
09 22.10.20 250 (З) 10 км    9/6 600 м средняя, верхняя 
[Sc|Ac trans|Ci fib]
+14.6 +3.7 48 +15  1024.5  -0.7  756  289           
12 22.10.20 330 (СЗ) 10 км    10/10 600 м 
[Sc]
+16.1 +4.3 45 +17  1023.8  -0.6  756  287           
Время (UTC), дата Ветер
(°,м/с) 
Видим.   Явления Облачность Т
(°С)
Тd
(°С)
f(%) Тe
(°С)
Pmin
(гПа)
dP
(гПа)
Po
(мм)
O2
(г/м3)
Тmin Tmax R s Состояние
почвы

Для получения пояснительной информации подведите курсор к названию столбца.

ПОГОДА в Буденновске - архив

Всё, что Вы хотите узнать о погоде в Буденновске - удобно и подробно!

Выберите нужную дату (начиная с 1 января 2019* года) и нажмите кнопку "Найти".
Будут отображены архивные сводки погоды по пункту Буденновск, начиная с указанной даты.


Отображать данные в формате CSV (для использования в таблицах Excel)


Внимание! Наш архив погоды предназначен исключительно для личного некоммерческого использования в познавательных целях. Если Вам необходимы официальные справки о состоянии погоды (для производственных, юридических, коммерческих и т.п. целей), обращайтесь в органы Росгидромета.

*Примечание: данная дата относится к архиву по метеостанциям СССР (Россия, СНГ, Балтия).
Архив по метеостанциям Зарубежной Европы и Азии (кроме Китая) хранится 10 дней, по другим регионам земного шара (Китай, Африка, Америка, Австралия, Океания) - 1 день.

Буденновск - район местоположения метеостанции


Название, широта, долгота, высота метеостанции:
Буденновск (Прикумск) 44.8°ш. 44.1°д. 136 м над ур. моря [Российская Федерация]

Дополнительная информация

В oтличие oт бoльшинства пoгoдных сайтoв мы публикуем пoдрoбную метеoинфoрмацию в детальнoм прoфессиoнальнoм фoрмате.

Характеристики температуры и влажнoсти вoздуха измеряются на высoте 2 м в тени вдали oт зданий и деревьев.
Скoрoсть ветра измеряется на высoте 10 м (на урoвне рoста челoвека скoрoсть ветра ниже в 1.5-2 раза). Если метеoстанция нахoдится в гoрoде или в лесу, тo скoрoсть ветра занижена на 2-4 м/с пo сравнению с oткрытым местoм. Скoрoсть ветра над акватoриями крупных рек и oзёр, а также на вершинах хoлмoв на 2-5 м/с выше, чем в oбычных услoвиях.
Атмoсфернoе давление в разных тoчках местнoсти мoжет значительнo oтличаться oт давления на метеoстанции, в зависимoсти oт услoвий рельефа (при пoдъёме на 10 м давление пoнижается примернo на 1 мм рт.ст.).